This is the latest recevied weather packets stored in our database for station/object IT9KWW-13. If no packets are shown the sender has not sent any weather packets the latest 1 day(s).
| Time | Temp. | Humidity | Pressure | Rain* | Wind** | Luminosity | Snow |
|---|---|---|---|---|---|---|---|
| 1777965801 | 20° C | 68% | 1014.9 hPa | 0 mm | 4.02 m/s, 202° | - | - |
| 1777965680 | 20° C | 67% | 1014.9 hPa | 0 mm | 4.02 m/s, 180° | - | - |
| 1777965560 | 20° C | 67% | 1014.9 hPa | 0 mm | 4.47 m/s, 202° | - | - |
| 1777965429 | 20° C | 65% | 1014.9 hPa | 0 mm | 3.58 m/s, 202° | - | - |
| 1777965308 | 20° C | 67% | 1014.9 hPa | 0 mm | 3.58 m/s, 180° | - | - |
| 1777965188 | 20° C | 68% | 1014.9 hPa | 0 mm | 3.13 m/s, 202° | - | - |
| 1777965057 | 20° C | 67% | 1014.9 hPa | 0 mm | 3.58 m/s, 202° | - | - |
| 1777964936 | 20° C | 68% | 1014.9 hPa | 0 mm | 2.68 m/s, 202° | - | - |
| 1777964816 | 19.44° C | 67% | 1014.9 hPa | 0 mm | 3.13 m/s, 180° | - | - |
| 1777964697 | 19.44° C | 67% | 1014.9 hPa | 0 mm | 3.13 m/s, 225° | - | - |
| 1777964576 | 19.44° C | 66% | 1014.9 hPa | 0 mm | 4.02 m/s, 202° | - | - |
| 1777964456 | 19.44° C | 68% | 1014.9 hPa | 0 mm | 4.02 m/s, 202° | - | - |
| 1777964337 | 19.44° C | 69% | 1014.9 hPa | 0 mm | 3.58 m/s, 202° | - | - |
| 1777964216 | 19.44° C | 68% | 1014.9 hPa | 0 mm | 4.02 m/s, 202° | - | - |
| 1777964096 | 19.44° C | 69% | 1014.9 hPa | 0 mm | 2.68 m/s, 202° | - | - |
| 1777963977 | 19.44° C | 68% | 1014.9 hPa | 0 mm | 2.68 m/s, 180° | - | - |
| 1777963856 | 19.44° C | 68% | 1014.9 hPa | 0 mm | 4.02 m/s, 180° | - | - |
| 1777963736 | 19.44° C | 69% | 1014.9 hPa | 0 mm | 2.24 m/s, 202° | - | - |
| 1777963617 | 19.44° C | 69% | 1014.9 hPa | 0 mm | 2.68 m/s, 202° | - | - |
| 1777963496 | 19.44° C | 70% | 1014.9 hPa | 0 mm | 3.58 m/s, 202° | - | - |
| 1777963376 | 19.44° C | 70% | 1014.9 hPa | 0 mm | 3.13 m/s, 180° | - | - |
| 1777963257 | 19.44° C | 69% | 1014.9 hPa | 0 mm | 4.02 m/s, 202° | - | - |
| 1777963136 | 19.44° C | 70% | 1014.9 hPa | 0 mm | 2.68 m/s, 158° | - | - |
| 1777963016 | 19.44° C | 71% | 1014.9 hPa | 0 mm | 3.13 m/s, 202° | - | - |
| 1777962885 | 19.44° C | 70% | 1014.9 hPa | 0 mm | 2.24 m/s, 202° | - | - |
* Rain latest hour (hover to see other rain measurements)
** Current wind speed in m/s (hover to see current wind gust speed)